This demonstration page uses our WeatherBlox Daily Observations layout. Learn more.

Left ArrowRight Arrow

44.8408, -93.29828

Hourly Observations for April 10, 2017

Temp ( °F °C ) Dew Point ( °F °C ) Humidity (%) Winds ( mph kmh ) Pressure ( in mb ) Visibility ( mi km ) Precip ( " mm )
12:53 am 00:53 Mostly Cloudy 53 11.7 41 5 64 64 NNE 18 30 29.63 1004 10 16 0.00 0.00
1:53 am 01:53 Cloudy 53 11.7 40 4.4 61 61 N 17 28 29.66 1004 10 16 0.00 0.00
2:53 am 02:53 Cloudy 52 11.1 41 5 66 66 NNE 21 33 29.64 1004 10 16 0.00 0.00
3:53 am 03:53 Cloudy 52 11.1 41 5 66 66 N 16 26 29.70 1006 10 16 0.00 0.00
4:53 am 04:53 Cloudy 51 10.6 41 5 69 69 N 16 26 29.73 1007 10 16 0.00 0.00
5:53 am 05:53 Cloudy 48 8.9 40 4.4 74 74 N 18 30 29.75 1008 10 16 0.00 0.00
6:44 am 06:44 Cloudy 46 7.8 37 2.8 71 71 NNE 20 31 29.80 1009 10 16 0.00 0.00
6:53 am 06:53 Cloudy 46 7.8 37 2.8 71 71 N 16 26 29.78 1008 10 16 0.00 0.00
7:53 am 07:53 Cloudy 45 7.2 36 2.2 71 71 N 18 30 29.81 1010 10 16 0.00 0.00
8:53 am 08:53 Cloudy 46 7.8 35 1.7 66 66 NNE 18 30 29.85 1011 10 16 0.00 0.00
9:53 am 09:53 Cloudy 46 7.8 35 1.7 66 66 N 18 30 29.89 1012 10 16 0.00 0.00
10:53 am 10:53 Cloudy 46 7.8 34 1.1 63 63 NNE 15 24 29.93 1014 10 16 0.00 0.00
11:53 am 11:53 Cloudy 46 7.8 34 1.1 63 63 NNE 14 22 29.97 1015 10 16 0.00 0.00
12:53 pm 12:53 Cloudy 46 7.8 34 1.1 63 63 NNE 15 24 29.97 1015 10 16 0.00 0.00
1:40 pm 13:40 Cloudy 46 8 34 1 62 62 NNE 22 35 29.97 1015 10 16 0.00 0.00
1:53 pm 13:53 Cloudy 44 6.7 33 0.6 65 65 NNE 21 33 29.97 1015 10 16 0.00 0.00
2:05 pm 14:05 Cloudy 44 6.7 33 0.6 65 65 NNE 18 30 29.97 1015 10 16 0.00 0.00
2:53 pm 14:53 Cloudy 43 6.1 33 0.6 68 68 N 17 28 29.99 1016 10 16 0.00 0.00
3:53 pm 15:53 Cloudy with Light Rain 41 5 33 0.6 73 73 NNE 18 30 29.97 1015 10 16 0.00 0.03
4:53 pm 16:53 Cloudy with Light Rain 39 3.9 33 0.6 79 79 NNE 15 24 30.01 1016 9 14 0.01 0.25
5:24 pm 17:24 Cloudy with Drizzle 39 4 34 1 81 81 NNE 16 26 30.03 1017 10 16 0.00 0.00
5:42 pm 17:42 Cloudy with Drizzle 37 3 34 1 87 87 NNE 12 19 30.06 1018 8 13 0.00 0.00
5:53 pm 17:53 Cloudy with Drizzle 38 3.3 34 1.1 86 86 NNE 12 19 30.04 1017 6 10 0.00 0.03
6:03 pm 18:03 Cloudy with Drizzle 37 3 34 1 87 87 N 9 15 30.06 1018 3 5 0.00 0.00
6:16 pm 18:16 Cloudy with Light Rain 38 3.3 34 1.1 86 86 NNE 13 20 30.06 1018 2 3 0.00 0.03
6:30 pm 18:30 Cloudy with Light Rain/Snow 37 2.8 34 1.1 89 89 NNE 10 17 30.06 1018 2 3 0.01 0.25
6:36 pm 18:36 Cloudy with Light Rain/Snow 37 3 34 1 87 87 NNE 10 17 30.06 1018 2 3 0.00 0.00
6:53 pm 18:53 Cloudy with Light Rain 37 2.8 34 1.1 89 89 N 10 17 30.06 1018 3 5 0.02 0.51
7:01 pm 19:01 Cloudy with Light Rain 37 2.8 34 1.1 89 89 N 10 17 30.06 1018 3 4 0.00 0.03
7:10 pm 19:10 Cloudy with Light Rain 37 3 34 1 87 87 N 6 9 30.09 1019 2 3 0.00 0.00
7:25 pm 19:25 Cloudy with Light Rain 37 2.8 34 1.1 89 89 N 8 13 30.09 1019 3 4 0.01 0.25
7:28 pm 19:28 Cloudy with Light Rain 37 3 34 1 87 87 N 10 17 30.09 1019 3 5 0.00 0.00
7:53 pm 19:53 Cloudy with Light Rain 36 2.2 33 0.6 89 89 N 13 20 30.09 1019 4 6 0.02 0.51
8:53 pm 20:53 Cloudy with Light Snow 33 0.6 31 -0.6 92 92 N 7 11 30.11 1020 3 4 0.04 1.02
9:11 pm 21:11 Cloudy with Light Snow 33 0.6 31 -0.6 92 92 N 7 11 30.12 1020 3 4 0.02 0.51
9:25 pm 21:25 Cloudy with Light Snow 33 0.6 31 -0.6 92 92 N 7 11 30.12 1020 2 2 0.04 1.02
9:43 pm 21:43 Cloudy with Light Snow 33 0.6 31 -0.6 92 92 N 7 11 30.12 1020 2 2 0.05 1.27
9:48 pm 21:48 Cloudy with Light Snow 34 1 30 -1 87 87 N 7 11 30.12 1020 4 6 0.00 0.00
9:53 pm 21:53 Cloudy with Light Snow 33 0.6 31 -0.6 92 92 N 7 11 30.12 1020 4 6 0.06 1.52
10:13 pm 22:13 Cloudy with Light Snow 33 0.6 31 -0.6 92 92 N 7 11 30.12 1020 5 8 0.01 0.25
10:53 pm 22:53 Cloudy with Light Snow 33 0.6 31 -0.6 92 92 N 6 9 30.13 1020 4 6 0.02 0.51
11:10 pm 23:10 Cloudy with Light Snow 34 1 30 -1 87 87 NNW 7 11 30.15 1021 5 8 0.00 0.00
11:23 pm 23:23 Cloudy with Mist and Fog 33 0.6 31 -0.6 92 92 NNW 6 9 30.15 1021 6 10 0.00 0.03
11:33 pm 23:33 Cloudy with Light Snow 33 0.6 31 -0.6 92 92 N 7 11 30.15 1021 7 11 0.00 0.03
11:53 pm 23:53 Cloudy with Light Snow 33 0.6 31 -0.6 92 92 N 6 9 30.15 1021 9 14 0.01 0.25

Powered by AerisWeather